Theta_e
321 321 321 321 321 321 322 323 323 323 324 324 325 325 326 327 326 326 327 327 327 327 327 326 326 326 326 327 329 327 322 307 309 310 307 308 316 332 334 338 334 336 332 312 310 309 305 304 304 304 303 304 302 302 303 307 302 301 295 287 286 287 288 290 293 292 294 295 294 296 294 294 293 294 298 298 297 295 294 296 297 298 297 297 298 300 301 302
321 321 321 321 321 321 321 322 322 323 323 323 324 325 325 326 326 326 326 326 326 326 326 327 326 326 327 326 327 326 316 312 308 306 306 320 334 336 337 337 335 336 323 311 309 304 302 302 302 302 303 301 306 302 306 302 307 298 291 288 288 286 292 294 294 295 294 294 294 294 293 294 295 295 296 296 293 293 294 294 295 297 298 297 298 299 300 301
320 320 320 320 320 321 320 321 322 322 322 322 323 324 324 324 325 325 326 326 326 326 326 326 326 326 326 326 325 325 317 314 310 307 308 330 336 338 338 336 334 332 313 310 308 306 303 302 301 301 303 300 301 300 303 301 304 297 293 289 289 292 292 294 295 298 295 296 295 294 294 292 294 296 297 295 295 291 293 294 294 295 298 297 296 297 299 300
320 320 320 320 320 320 320 320 321 321 321 322 322 323 323 323 324 325 325 326 326 326 326 326 326 326 325 325 327 318 314 304 297 302 310 326 335 336 337 335 336 331 318 313 310 307 302 302 300 301 299 300 296 304 300 301 300 296 295 291 292 293 294 298 298 298 296 294 295 292 294 292 293 294 295 292 293 295 295 296 298 297 297 298 295 297 297 298
320 320 320 320 320 320 320 320 321 321 321 322 322 322 322 323 323 324 325 325 325 326 326 326 326 326 325 326 325 314 307 290 294 307 312 331 337 333 337 337 335 322 317 309 305 303 303 301 300 301 300 293 296 300 298 299 299 296 298 298 297 293 294 298 296 295 295 293 295 293 294 296 294 294 295 293 294 296 297 296 297 299 300 297 295 296 297 297
320 320 320 320 320 320 320 320 321 321 321 321 322 322 322 322 323 323 324 325 325 325 326 326 325 325 326 326 312 311 298 289 301 310 327 331 332 337 336 336 335 318 316 304 304 301 302 302 301 298 296 295 294 295 293 300 301 295 296 296 297 297 297 297 298 296 293 295 293 294 294 295 294 294 291 294 296 300 301 295 298 299 300 299 298 297 296 296
319 320 320 319 319 319 320 320 320 321 321 321 321 322 322 322 322 323 324 324 324 325 325 325 325 325 324 322 312 304 297 294 305 312 325 329 332 335 335 332 330 317 307 303 302 302 300 299 299 296 296 295 293 293 296 298 300 298 296 295 298 297 297 300 299 296 293 293 295 294 294 295 294 293 292 293 299 301 301 294 296 298 298 296 296 296 297 297
319 319 320 320 319 319 320 320 320 320 321 321 321 322 322 322 322 322 323 323 324 324 325 325 324 325 322 311 310 301 300 299 302 313 324 330 328 328 326 314 314 310 305 301 300 300 299 298 298 297 297 295 292 295 296 296 297 296 296 296 298 297 297 296 294 291 291 292 292 293 293 296 294 294 292 296 300 301 299 297 297 294 294 294 297 296 297 297
320 321 320 320 320 319 319 319 320 320 320 321 321 321 322 322 322 322 323 323 324 324 324 324 324 323 322 308 300 297 296 304 306 309 317 319 317 312 308 308 308 306 302 300 300 300 301 297 298 298 294 295 296 296 293 295 293 295 298 297 293 294 294 294 294 294 294 294 293 294 294 295 293 293 294 298 301 302 298 296 297 296 294 294 295 297 297 297
320 320 320 320 320 319 319 319 319 320 320 321 321 321 321 322 322 322 323 323 323 323 324 324 324 320 311 303 297 293 300 309 311 311 313 313 310 307 308 307 306 302 301 300 299 300 300 297 300 300 300 296 296 295 294 295 293 294 293 292 293 294 294 294 293 296 294 293 291 294 295 296 292 294 294 300 301 298 296 297 297 295 296 296 296 296 297 297
321 320 321 320 320 319 319 319 319 319 320 320 320 321 321 321 322 322 323 323 323 323 323 323 322 316 307 306 297 293 305 309 308 309 310 307 306 304 306 305 304 303 301 301 300 300 300 299 303 303 302 296 296 293 294 294 295 295 294 293 295 293 293 295 294 294 294 295 293 295 295 295 292 292 295 299 299 294 295 295 294 294 296 296 296 296 296 297
322 321 321 320 320 319 319 320 320 320 320 320 320 320 320 321 321 322 322 322 322 323 323 323 321 314 308 303 297 298 306 310 307 305 307 306 306 304 304 304 303 306 302 300 300 303 301 301 302 300 295 299 293 295 293 293 296 294 294 292 294 293 294 297 295 295 293 295 291 293 291 292 289 291 297 299 301 297 295 294 293 293 295 296 296 296 295 297
320 320 321 320 319 319 320 320 320 320 320 320 320 320 321 321 321 322 322 321 321 322 323 323 316 313 307 296 300 308 307 305 305 306 307 307 307 308 305 304 304 306 303 301 302 307 306 304 301 299 298 298 292 294 295 297 295 294 293 291 292 291 290 297 294 293 293 293 292 293 286 290 293 295 298 299 298 295 294 296 297 296 295 296 296 296 296 296
320 320 320 318 318 319 321 320 320 320 320 320 320 321 321 321 322 321 322 321 322 322 324 323 314 310 301 295 301 308 308 309 307 308 307 308 306 305 308 309 308 306 305 307 302 303 304 301 300 299 298 297 294 298 296 291 293 291 290 290 288 285 286 295 292 290 291 291 293 294 287 291 295 296 296 298 297 294 295 296 296 297 296 296 296 296 296 297
319 319 318 318 318 319 320 320 320 320 320 320 320 320 321 321 321 321 322 321 322 323 322 317 311 302 296 299 307 310 323 306 306 305 307 305 303 305 305 308 308 304 305 303 305 303 302 300 299 298 294 295 297 294 289 287 285 288 287 285 283 286 289 294 292 291 292 291 291 293 286 290 295 298 296 294 293 293 294 295 296 296 296 295 295 295 296 297
319 319 319 318 319 320 320 320 319 319 320 320 320 320 320 320 320 321 322 322 322 321 317 306 309 302 293 293 303 315 306 303 303 305 305 307 304 303 303 305 303 303 301 301 303 301 300 298 296 291 294 296 294 287 284 286 286 284 288 285 286 282 285 288 291 289 294 291 291 293 289 288 291 296 297 294 293 291 293 294 294 295 295 295 295 295 296 297
319 319 318 318 319 320 320 319 319 319 320 320 320 320 320 320 321 322 323 321 317 318 312 306 307 309 294 300 306 300 300 303 306 306 306 306 306 305 304 303 301 301 299 300 301 301 299 299 297 295 292 292 287 287 285 282 284 285 284 285 284 285 285 284 289 290 289 292 289 291 289 291 295 297 294 290 290 290 290 292 293 294 295 295 295 295 295 296
319 319 318 318 319 320 319 318 318 319 320 320 319 320 318 321 323 321 316 315 315 314 310 314 303 298 297 302 297 299 304 305 305 305 304 302 307 303 300 300 299 298 298 297 299 297 297 294 293 289 289 291 289 287 284 282 285 285 283 282 284 284 285 288 286 287 290 289 290 289 289 291 294 296 296 297 292 290 291 293 293 293 293 294 294 295 295 296
320 319 318 319 319 318 318 318 319 319 320 320 321 319 320 320 310 310 309 312 301 296 294 294 295 290 289 297 300 302 309 308 305 304 303 304 305 302 300 299 298 298 295 293 293 296 294 292 293 289 288 289 290 290 288 289 288 287 285 284 282 283 285 285 290 291 292 290 288 288 289 290 291 293 295 297 296 294 294 294 293 293 294 294 295 296 297 297
320 320 319 319 318 318 318 318 319 319 320 317 311 307 301 297 293 299 298 302 301 295 296 296 302 296 297 297 300 304 308 306 303 303 303 305 305 302 301 299 298 296 291 290 292 293 294 288 287 287 290 291 291 290 292 292 291 288 286 284 285 285 287 288 290 291 289 288 289 290 290 291 292 293 295 296 297 295 294 293 293 294 295 296 296 297 297 298
320 320 319 319 319 318 319 319 319 319 320 314 305 297 292 293 292 290 292 294 298 299 298 299 302 301 300 300 302 302 301 301 302 301 303 306 300 302 297 296 294 292 291 291 291 293 293 287 287 291 293 293 292 291 291 290 289 289 287 285 287 286 286 290 291 291 289 288 288 288 290 291 292 293 294 296 295 294 295 295 294 294 295 295 296 297 297 299
320 320 320 319 318 319 319 319 319 319 319 303 302 299 297 297 298 299 292 291 295 296 296 298 299 298 300 300 302 302 301 298 298 300 304 303 299 298 293 295 290 291 290 291 290 289 286 286 290 292 294 291 290 288 289 289 289 287 286 286 285 286 288 291 291 292 292 286 289 290 289 291 292 293 294 294 295 297 297 296 297 296 295 295 295 296 297 297
320 320 319 319 318 319 319 319 318 319 305 301 298 297 297 300 300 299 299 293 293 298 296 295 294 295 298 301 300 301 299 297 296 299 301 302 296 297 293 292 290 289 290 291 289 286 285 287 291 293 291 290 289 288 287 287 286 284 285 282 284 287 285 286 286 289 288 289 282 282 285 289 290 291 291 294 295 297 297 297 296 296 295 296 297 298 298 298
320 320 319 318 318 319 319 319 318 308 303 299 298 298 300 298 297 300 298 291 290 294 296 296 296 294 294 295 300 301 298 295 296 295 302 299 295 294 293 291 290 288 289 290 291 290 289 288 292 293 290 290 290 290 287 285 287 287 287 286 286 286 288 287 287 286 286 287 285 287 287 288 290 290 291 293 295 295 295 295 295 295 296 297 298 298 299 299
320 319 319 318 317 319 318 319 305 304 303 300 298 300 298 296 298 299 295 290 288 292 298 297 297 295 296 301 300 297 297 296 295 297 301 299 294 292 291 292 290 289 289 289 290 289 289 289 289 290 290 290 289 287 287 288 286 288 287 288 289 290 288 288 288 286 283 285 286 286 283 285 286 289 291 292 292 292 294 293 294 296 296 297 296 297 299 299
320 319 319 319 319 319 320 308 303 305 302 301 301 300 298 297 298 298 293 284 283 288 294 293 300 296 303 297 298 297 294 292 295 294 300 298 301 295 292 290 290 288 288 287 289 288 288 289 292 290 289 288 288 288 287 289 288 287 284 289 290 289 288 286 285 284 280 280 285 285 280 282 283 284 286 288 289 291 292 292 294 295 296 296 296 297 297 297
320 319 319 319 319 319 307 302 307 305 301 302 302 300 297 299 298 297 290 284 284 291 290 296 297 296 303 298 295 293 287 286 296 297 297 299 298 299 291 288 290 290 289 288 285 284 289 287 289 289 288 288 285 285 289 290 288 285 283 286 287 286 284 285 284 284 284 283 283 284 282 280 283 288 288 289 290 290 290 292 293 294 295 294 295 296 296 297
320 320 319 320 319 318 308 307 306 303 305 305 302 300 299 299 298 298 287 278 279 295 292 293 297 302 300 297 295 290 290 291 290 295 294 296 297 295 292 287 289 287 290 288 283 290 288 286 286 286 285 285 286 289 290 290 288 286 286 285 286 285 285 284 285 282 281 280 282 283 282 281 283 285 290 290 287 287 290 292 294 295 295 295 296 297 297 297
320 319 319 319 320 320 309 307 306 305 306 304 301 301 302 296 295 288 281 279 290 290 301 294 303 298 295 297 293 288 290 290 289 291 294 296 297 293 289 289 288 287 286 289 287 288 288 288 287 288 285 285 288 287 288 290 287 287 286 286 284 283 282 284 282 285 279 278 281 280 283 280 282 288 283 284 286 287 289 292 294 295 296 296 296 296 297 297
320 319 319 319 318 315 311 310 308 308 307 304 302 301 300 299 291 286 281 276 292 287 293 294 294 290 291 290 289 289 290 288 289 290 292 292 293 295 293 293 290 290 288 287 286 287 288 290 291 288 287 289 287 285 284 289 289 287 287 289 281 282 280 278 278 278 279 279 281 282 283 283 279 283 284 283 284 287 290 290 292 293 294 295 294 295 296 296
320 319 318 318 314 315 311 306 310 308 306 304 304 303 302 292 284 279 279 286 293 291 292 291 290 292 290 289 287 287 290 287 289 290 289 291 290 289 288 290 288 282 281 282 286 290 288 289 288 287 289 287 286 286 286 284 286 289 287 284 283 284 277 276 272 277 276 278 280 283 283 283 279 279 281 284 284 285 289 289 292 292 293 295 295 296 296 296
319 319 319 318 318 317 310 309 311 309 307 306 307 304 299 289 288 283 284 294 288 290 288 288 289 287 288 288 288 286 286 288 287 288 287 284 284 286 286 285 283 280 278 278 282 281 282 286 288 289 290 293 287 287 283 282 287 286 282 283 280 274 274 270 272 272 272 278 278 282 283 279 281 286 285 288 290 289 288 291 292 292 293 294 295 295 296 295
319 318 317 318 317 314 314 310 310 309 309 308 306 305 293 287 282 288 286 291 290 293 291 292 290 289 288 288 286 287 289 287 289 288 288 286 285 284 283 286 283 285 283 280 280 280 284 283 285 287 290 291 290 286 282 283 284 284 284 280 278 274 271 270 265 266 271 277 279 280 282 282 285 283 287 292 294 294 291 290 291 292 293 294 294 294 293 292
319 318 315 316 318 318 312 310 309 310 309 308 303 297 291 285 285 294 290 290 294 294 293 293 292 289 287 287 285 288 287 289 288 288 289 286 285 282 284 286 286 286 285 283 283 281 281 285 285 286 284 288 292 291 290 289 284 286 285 286 283 280 269 266 272 276 276 279 276 277 278 275 276 281 284 288 290 289 290 289 289 290 291 291 291 290 290 290
318 318 318 316 316 317 310 311 309 310 309 304 297 291 285 286 288 285 285 286 289 292 291 294 291 287 287 287 287 290 291 288 289 287 288 285 283 281 282 284 288 289 287 284 285 281 284 285 288 291 287 289 289 293 293 288 283 284 283 286 281 282 279 281 282 280 279 272 273 274 278 277 284 286 288 285 286 288 289 290 290 291 292 292 292 293 293 290
316 316 318 313 313 315 311 310 310 311 307 300 291 286 285 289 285 287 290 295 293 290 292 294 290 287 284 284 287 290 294 288 289 288 287 286 286 284 285 284 286 289 287 285 286 283 285 281 285 290 287 289 290 290 290 291 281 283 286 283 286 288 286 284 284 284 280 276 278 281 278 283 284 289 285 286 286 287 286 287 287 289 291 291 292 292 291 290
313 315 311 312 313 313 311 310 311 309 305 299 290 286 291 288 292 290 298 295 296 296 292 289 290 288 285 285 285 288 290 293 289 288 286 289 288 289 286 287 290 289 292 291 285 290 285 286 290 286 288 289 284 287 288 288 287 282 279 283 286 286 285 283 276 275 278 277 278 284 281 282 280 279 281 285 286 287 287 288 288 288 288 288 290 291 291 290
312 312 312 312 314 313 311 311 311 307 302 296 290 293 292 290 294 296 296 295 296 295 292 290 289 295 289 290 289 292 291 291 291 289 285 290 289 292 288 288 292 291 292 293 287 287 289 282 289 290 288 287 285 290 288 287 286 285 282 287 285 279 279 280 276 275 276 276 277 280 283 283 283 284 287 287 284 285 286 287 286 288 288 286 286 287 287 286
312 310 305 311 315 313 311 312 310 304 297 291 289 290 293 292 296 294 297 296 295 294 290 291 289 292 292 288 290 290 291 287 291 287 288 289 287 294 292 292 291 292 293 292 287 288 289 282 284 289 287 287 284 285 283 284 287 288 288 285 284 283 281 278 281 278 281 277 279 279 282 280 285 279 283 283 281 284 285 286 287 287 286 286 286 286 287 288
308 304 300 308 312 312 312 311 304 301 295 288 290 291 293 290 293 295 296 298 293 293 291 290 294 291 293 293 292 288 287 290 290 289 290 290 291 298 293 295 291 291 293 293 290 291 285 286 280 287 287 286 282 284 281 283 281 283 284 282 284 283 284 283 283 280 280 278 278 278 278 283 289 284 285 286 284 283 287 289 287 287 287 287 287 285 286 287
308 303 302 310 311 312 311 306 298 293 292 290 293 294 294 293 294 296 297 298 296 300 295 293 293 292 293 291 291 291 287 288 289 288 290 289 292 287 294 295 293 292 293 291 290 289 286 285 281 285 285 285 285 285 284 285 287 284 285 284 286 284 282 280 278 285 281 280 278 279 277 284 291 291 287 287 285 286 287 288 288 286 286 286 288 286 284 286
303 294 300 310 311 311 305 295 294 295 290 291 293 295 293 300 292 292 294 296 296 293 298 295 294 293 291 292 292 289 287 287 289 289 289 289 292 293 293 296 295 294 293 289 289 291 290 286 284 282 284 286 289 291 288 288 287 286 286 283 285 285 285 281 278 281 283 281 284 283 280 282 293 296 293 289 287 287 288 288 289 287 286 286 287 286 285 285
300 297 305 308 311 309 301 294 295 292 290 292 296 294 294 292 291 292 292 292 292 295 292 292 293 292 293 294 292 291 292 288 289 288 289 289 291 295 297 297 298 296 297 288 293 291 293 284 281 284 287 288 291 293 292 288 286 284 284 286 284 283 285 284 284 285 283 282 282 281 279 282 293 295 295 295 294 290 291 287 287 287 287 288 287 287 286 286
298 299 301 308 310 307 298 288 289 291 291 294 293 293 294 293 292 290 292 292 292 290 291 290 292 296 292 295 293 291 293 286 291 292 289 290 288 296 297 297 298 293 293 288 291 291 287 285 286 281 281 283 285 288 289 288 285 284 282 285 287 288 287 287 286 283 282 283 283 280 276 281 290 294 294 292 292 291 290 290 287 287 288 288 288 289 289 290
296 300 300 303 307 303 293 297 294 290 292 292 292 291 292 291 292 295 295 292 294 292 291 289 294 291 292 293 292 293 292 292 288 290 291 286 289 289 293 295 296 293 296 294 295 292 289 286 285 279 276 275 276 277 280 284 285 282 282 283 285 285 285 283 281 282 279 282 284 280 280 286 291 292 292 293 293 293 295 295 291 288 288 290 290 291 291 290
292 284 290 296 301 299 298 299 296 292 289 289 289 292 293 291 292 292 293 293 296 292 294 292 289 292 290 289 289 289 290 290 288 285 286 282 283 286 290 293 294 294 295 297 293 291 284 287 288 286 284 282 284 286 288 288 283 283 285 286 286 285 285 285 283 280 279 283 282 283 284 285 287 289 290 292 293 292 293 294 291 291 291 292 291 291 291 292
292 287 288 286 297 296 295 297 295 293 290 291 286 291 289 290 291 290 294 288 291 293 292 293 291 290 289 290 289 289 290 288 290 289 287 287 288 287 287 289 290 293 295 292 293 290 283 284 286 287 286 287 289 289 290 290 287 287 287 287 288 286 284 282 281 280 285 282 278 285 286 284 285 288 290 291 292 293 294 294 293 293 293 294 294 294 293 291
284 286 291 291 289 286 290 290 295 293 295 294 289 291 288 288 288 287 289 292 290 290 288 285 291 292 291 290 289 286 288 288 286 286 288 288 288 289 291 290 289 291 291 288 291 288 281 283 286 287 285 288 289 289 290 289 289 288 288 287 286 287 286 284 284 286 285 281 279 285 286 284 286 289 290 291 292 292 292 293 294 295 295 295 295 294 294 295
288 288 288 291 285 288 290 289 291 293 292 293 290 292 288 288 287 289 288 285 288 286 291 285 289 291 289 288 285 284 287 284 284 288 283 280 281 283 284 287 290 290 289 287 287 286 283 283 286 287 286 286 287 287 288 287 287 287 286 286 287 286 286 286 286 287 286 285 286 286 286 286 288 289 291 292 294 293 294 295 295 295 294 295 295 295 294 295
282 286 283 290 288 285 283 286 288 288 286 291 287 288 291 290 288 290 289 289 285 286 291 288 287 285 285 285 286 283 284 286 282 280 284 283 282 285 283 285 286 287 288 286 288 286 287 284 290 288 284 284 286 287 287 287 286 285 286 287 286 286 286 286 286 286 287 285 286 286 285 285 291 293 293 294 295 295 294 293 293 294 295 295 294 294 294 295
289 291 292 286 283 283 283 282 283 284 284 286 286 288 290 289 288 290 288 293 290 287 288 285 286 285 285 285 285 285 287 284 283 283 285 284 280 285 283 283 287 282 285 285 287 287 286 284 287 286 282 282 286 285 285 285 284 283 283 285 285 285 283 285 284 286 285 284 285 285 283 284 290 293 293 294 294 294 293 293 294 295 295 294 291 290 289 289
286 288 292 289 281 286 280 280 279 282 281 285 287 286 287 285 286 287 283 290 292 291 286 285 285 285 284 284 282 284 284 283 285 286 287 287 288 287 288 287 287 285 284 284 286 284 285 284 283 284 280 280 285 286 284 284 282 279 281 284 286 286 287 287 288 288 288 288 284 282 283 289 291 291 289 290 291 291 292 292 293 291 288 287 287 287 288 288
Wind_Speed
16 16 16 16 17 17 17 16 17 17 17 17 17 17 17 17 16 15 14 13 12 12 12 12 12 11 11 10 9 6 2 1 1 1 1 9 5 5 10 3 11 10 8 4 4 5 1 1 2 1 2 1 1 0 2 1 2 2 2 3 2 5 2 5 5 5 1 1 3 1 5 4 4 2 1 1 2 2 1 3 4 3 1 0 1 2 6 12
15 15 16 16 16 17 17 16 16 16 16 17 17 17 17 17 17 16 15 14 13 13 12 12 13 12 11 10 9 6 1 1 2 3 14 0 1 4 7 8 11 12 9 4 7 5 5 1 2 2 2 0 1 1 1 1 1 4 1 2 8 5 8 5 4 3 1 4 4 3 2 5 8 2 1 1 4 2 5 5 2 5 5 2 4 5 10 12
15 15 15 15 16 16 17 17 17 16 16 16 16 16 17 18 17 16 16 15 14 14 13 13 13 13 12 10 10 6 2 1 1 4 5 2 2 3 6 8 10 12 7 4 5 8 6 6 4 4 0 1 1 2 1 1 3 4 4 5 7 8 5 5 4 6 3 4 5 4 3 5 4 2 0 3 8 4 9 7 2 6 11 8 3 4 8 11
14 15 16 16 16 16 16 16 16 17 16 16 16 16 16 17 17 17 17 15 15 15 14 14 14 13 11 11 9 5 0 0 1 2 2 5 3 4 4 7 7 7 0 1 6 6 3 4 4 5 1 1 2 1 1 4 2 2 2 5 6 4 3 9 7 9 8 3 2 3 0 1 5 5 2 2 5 12 12 9 11 12 14 11 8 7 8 10
14 14 15 15 16 16 17 16 17 17 17 16 16 16 16 16 17 17 16 16 15 14 14 14 15 14 12 10 11 1 1 3 1 2 2 3 4 5 3 4 4 3 1 1 4 3 4 4 3 1 2 3 1 0 4 3 3 4 9 7 8 0 2 10 6 7 4 3 2 1 1 7 0 1 4 4 9 16 8 6 11 12 11 6 10 11 9 11
13 14 14 15 15 16 16 17 16 16 17 16 16 16 16 16 16 16 16 16 15 15 14 14 14 15 13 11 3 0 1 3 1 1 6 5 5 4 5 3 4 2 0 4 3 3 4 1 3 1 1 1 4 6 3 4 3 5 4 6 6 6 6 4 2 3 2 2 3 2 5 0 1 4 3 6 15 20 8 4 10 12 13 10 9 11 11 12
13 14 14 15 15 16 17 16 17 17 16 16 16 17 16 16 16 15 16 16 15 14 14 13 13 13 13 6 0 3 1 6 2 5 9 7 6 6 4 4 6 3 1 3 2 3 2 2 2 3 1 0 4 4 6 1 4 5 10 2 7 6 12 12 9 6 4 5 7 4 1 3 2 8 1 5 18 20 14 3 6 10 9 4 9 14 18 18
12 13 12 13 14 16 17 17 17 16 16 16 16 16 17 17 17 16 15 15 15 15 14 13 12 12 9 1 1 1 2 6 8 2 8 7 6 5 7 3 5 4 3 6 6 4 4 4 5 2 2 5 3 4 2 1 2 6 9 4 7 5 8 7 6 5 5 7 5 3 5 11 6 7 2 12 21 19 10 4 7 5 2 5 9 13 14 15
10 10 11 10 12 14 17 18 17 17 17 18 17 17 18 18 17 17 15 14 13 14 13 13 12 11 4 1 3 3 6 5 5 6 5 6 6 5 8 3 5 6 4 3 4 5 5 5 3 5 6 1 2 3 2 2 8 7 11 2 4 4 6 6 6 8 8 5 3 3 12 11 8 3 9 23 23 21 2 7 10 7 6 7 11 14 15 15
7 9 11 11 13 15 17 17 18 17 18 18 19 18 18 18 18 17 16 14 13 12 12 10 8 7 2 2 2 1 6 3 1 5 5 5 5 5 2 2 8 5 4 4 4 5 6 5 6 4 2 2 2 4 2 4 6 3 3 4 6 7 7 7 6 8 2 4 5 6 12 13 2 5 13 15 17 6 4 8 9 7 11 12 10 10 12 15
6 8 11 11 11 14 17 17 17 17 17 19 18 19 19 18 18 17 16 15 14 13 10 8 4 3 0 1 3 8 4 4 1 4 7 6 7 5 6 4 5 5 6 2 6 7 5 5 3 3 1 5 2 4 2 4 1 2 2 6 9 5 6 12 7 12 1 7 9 10 13 10 1 3 16 21 9 3 4 8 6 7 11 11 12 12 10 12
7 12 11 11 11 13 16 17 16 16 17 17 17 18 18 18 18 17 15 15 14 11 9 8 3 3 1 1 7 8 3 2 1 3 5 6 4 6 5 4 5 5 7 6 5 4 5 4 6 3 5 1 3 1 3 2 0 1 3 7 12 7 9 18 10 5 5 7 5 7 3 10 3 10 22 20 16 4 4 8 8 8 11 12 10 10 9 14
7 8 7 12 12 13 16 17 16 17 17 18 18 19 19 19 18 17 16 15 10 11 10 1 6 0 2 3 10 5 2 2 1 4 1 1 1 1 0 0 2 2 4 4 3 3 4 5 4 4 3 1 2 2 1 1 2 1 1 0 11 9 9 26 1 3 5 4 7 6 6 9 11 19 19 16 10 3 5 12 14 12 10 10 9 9 11 11
8 4 10 13 13 15 16 17 16 17 17 18 19 20 20 21 19 19 17 15 13 11 4 5 4 2 1 6 5 3 3 0 4 2 4 2 3 2 1 1 2 1 1 1 0 1 2 0 5 3 1 4 4 2 3 4 1 4 2 2 7 6 10 14 3 2 2 3 9 5 6 12 15 13 13 15 8 5 10 13 14 14 12 10 9 10 11 13
4 6 9 13 14 15 16 16 16 16 17 18 19 20 20 21 19 17 16 13 8 1 5 6 0 4 1 8 2 4 3 2 3 4 4 5 4 1 3 1 0 2 0 1 0 0 1 3 3 1 2 1 1 4 6 2 3 1 2 8 2 8 11 18 4 5 6 1 6 6 7 13 17 21 7 6 3 6 10 14 15 14 13 11 9 10 12 15
7 9 11 14 13 14 15 14 16 17 20 21 20 20 20 18 18 16 12 11 9 6 3 1 1 2 2 5 2 2 1 2 5 5 3 4 5 5 2 3 1 3 2 1 2 2 2 2 1 4 1 1 3 2 2 5 6 2 9 7 10 4 7 10 8 3 11 2 2 10 10 4 12 18 13 6 6 7 10 12 13 14 15 13 11 11 12 12
9 9 11 12 13 14 13 14 16 19 20 20 24 23 19 16 14 12 4 3 3 4 2 1 1 0 1 2 1 2 5 5 2 1 2 2 4 4 5 2 0 1 3 3 4 3 2 1 0 1 2 5 2 4 1 4 10 10 3 8 5 7 2 4 10 6 4 7 5 9 8 12 15 13 8 0 4 5 7 12 13 14 12 11 10 11 12 12
10 10 11 12 14 14 15 17 19 20 20 20 21 19 16 16 7 9 6 5 3 3 1 1 2 1 8 1 4 5 0 1 0 2 3 0 3 4 3 1 2 4 3 1 2 3 1 1 1 6 2 4 2 4 8 13 14 11 3 4 7 5 6 12 2 3 2 3 8 7 14 17 16 15 15 12 5 5 9 11 13 11 10 11 10 13 13 13
11 9 10 13 13 14 15 17 20 19 19 24 21 14 6 3 2 1 4 0 2 2 1 2 3 4 4 4 5 3 2 3 1 5 3 3 0 3 2 3 5 6 1 2 3 5 1 3 3 2 9 9 12 11 14 19 10 11 7 5 3 5 7 7 12 7 5 9 9 10 13 16 17 19 18 17 13 11 14 11 10 12 13 12 12 14 14 14
11 9 13 13 13 14 15 17 19 19 20 15 9 4 1 2 2 1 5 1 3 5 2 5 8 2 4 4 2 1 1 1 2 2 3 1 6 2 0 2 3 2 6 5 1 6 4 8 8 10 15 16 10 9 18 18 10 6 1 4 9 10 10 7 13 9 2 4 12 14 17 19 16 17 19 18 16 13 13 12 14 14 14 15 15 16 18 19
9 10 14 13 13 14 15 17 18 18 19 9 6 3 1 1 1 3 5 10 8 6 5 5 14 10 9 1 1 4 3 2 1 1 4 3 3 9 4 3 1 4 5 5 7 1 3 8 10 16 17 14 14 10 8 10 6 10 10 8 14 7 16 15 13 7 4 5 7 8 17 19 18 15 16 14 13 19 18 18 17 17 16 15 17 20 19 20
10 10 10 14 15 15 15 16 18 17 15 3 5 5 1 0 0 1 1 6 5 8 8 13 3 6 6 8 4 4 4 1 2 5 2 5 5 9 3 7 5 11 3 3 3 1 6 12 15 18 13 7 1 3 6 10 10 8 9 9 9 11 13 15 12 12 11 3 16 12 18 20 18 16 15 14 17 19 16 16 20 17 14 14 15 18 19 16
9 8 11 12 13 15 15 16 17 15 5 5 4 2 0 0 0 1 1 1 7 4 3 7 6 12 12 10 3 3 6 11 13 3 6 5 3 6 4 5 7 2 4 7 11 6 8 7 14 12 7 5 5 3 5 3 4 6 7 6 12 8 3 14 4 8 2 7 4 3 12 16 11 10 12 13 16 19 16 17 18 15 14 17 19 18 17 18
8 7 11 11 12 14 15 15 15 4 3 4 4 1 1 2 2 3 1 3 5 7 9 5 3 3 8 5 4 9 11 3 2 5 2 6 8 3 2 6 4 3 8 11 15 15 17 3 9 11 6 9 13 10 4 4 13 8 12 7 10 11 15 14 7 4 6 5 4 10 16 17 13 16 13 13 18 18 15 15 15 15 13 16 15 14 16 21
8 7 7 10 11 13 14 14 3 2 1 1 1 2 3 3 3 3 1 5 2 6 3 2 5 3 4 2 2 4 3 2 6 0 3 8 7 3 4 3 3 11 7 9 10 13 16 4 2 5 7 9 10 8 7 6 14 14 7 13 21 19 14 10 12 9 5 9 3 5 12 17 8 16 17 10 8 11 12 14 18 19 17 16 17 20 22 20
10 9 8 7 8 11 14 4 2 0 1 0 1 2 4 3 1 1 1 2 7 4 3 3 1 1 1 0 1 6 4 4 1 1 2 3 1 3 2 2 4 8 7 5 10 7 6 5 8 8 8 10 10 9 6 10 15 15 5 16 19 14 11 10 11 3 7 7 4 3 4 22 7 4 6 6 8 13 7 10 16 18 17 15 17 19 18 18
11 10 8 7 6 7 4 1 2 1 1 1 2 3 3 3 3 1 2 3 5 3 4 1 1 1 2 1 1 3 1 4 1 3 2 4 4 1 4 5 1 1 3 2 2 7 2 5 9 8 9 9 6 7 9 15 11 11 3 9 8 8 7 7 6 7 10 1 3 2 5 10 25 12 6 11 13 11 12 15 18 17 17 15 17 19 17 16
12 10 9 7 6 3 2 0 3 2 2 1 2 3 3 4 3 0 2 5 4 1 1 1 0 2 1 1 5 1 1 1 1 1 0 3 1 1 3 4 7 4 2 5 13 1 5 2 6 7 6 5 9 16 7 12 8 6 0 7 5 6 5 2 3 4 3 5 11 8 4 5 15 6 12 13 9 8 14 18 18 18 16 17 19 19 16 18
12 12 10 8 7 7 1 0 1 3 1 2 3 3 3 3 1 3 2 3 2 2 3 1 3 1 2 2 1 1 1 3 0 1 3 2 3 2 2 4 1 1 3 7 13 4 2 1 4 7 7 11 9 4 8 14 10 5 5 5 4 3 4 2 1 0 3 3 16 5 5 5 21 15 4 1 6 10 14 18 18 16 16 17 16 15 16 16
13 13 12 11 6 1 0 1 4 2 2 3 3 3 3 1 1 1 1 7 2 3 1 1 1 2 2 2 2 3 1 2 1 2 3 1 3 2 0 1 2 2 6 3 6 8 6 2 5 5 8 5 2 2 4 10 8 4 2 1 3 5 3 3 5 2 4 9 11 12 10 7 13 5 8 8 6 10 12 7 9 10 11 14 13 14 15 15
14 14 14 13 6 4 5 2 7 2 4 4 3 3 0 2 2 3 10 4 3 1 0 1 0 2 3 2 2 1 1 1 0 1 0 1 2 3 2 0 3 2 2 3 9 14 6 0 1 5 4 3 2 1 2 1 0 1 3 2 4 6 6 2 3 2 3 14 4 11 13 12 11 2 4 4 3 2 5 8 14 14 14 15 14 14 14 14
14 14 15 12 5 6 7 4 3 6 5 4 2 4 2 1 1 9 7 1 1 2 2 0 1 2 0 1 1 1 2 1 1 3 5 3 3 5 5 7 3 0 4 4 8 4 5 12 10 2 4 12 4 3 4 1 1 4 3 1 3 6 7 4 2 1 5 13 3 7 12 1 21 10 3 8 7 7 9 11 13 13 12 14 15 15 13 12
14 14 17 12 7 4 3 3 5 6 6 1 2 2 3 2 8 8 4 2 4 2 1 3 1 2 2 2 3 3 1 3 0 1 3 0 3 4 3 5 4 3 7 2 2 4 9 2 2 5 2 6 7 9 1 1 5 6 7 5 5 5 5 6 4 3 6 8 6 5 2 11 11 5 8 11 16 11 5 7 10 12 14 13 13 10 9 10
13 13 9 8 10 7 4 8 7 9 5 2 5 3 4 4 9 3 4 7 7 1 5 2 1 1 4 5 3 4 2 3 4 2 3 1 1 3 4 5 5 3 3 2 4 1 9 13 5 6 4 3 11 12 14 11 8 12 2 11 11 10 5 3 4 10 9 11 3 3 5 8 1 5 2 7 7 5 6 4 5 6 8 11 11 12 14 10
11 10 8 4 6 5 8 7 9 7 6 5 3 3 6 10 1 1 1 3 3 3 4 1 0 1 4 1 2 3 4 2 1 3 1 3 4 3 4 4 7 5 1 2 3 2 7 11 6 8 1 7 11 13 10 2 2 3 3 2 1 10 6 8 9 8 9 3 3 2 8 3 7 1 4 3 5 7 8 10 7 10 10 13 13 15 14 7
1 3 6 3 5 5 9 8 8 6 7 5 5 2 10 6 2 2 2 2 1 1 4 6 2 2 3 2 1 1 1 4 1 2 1 3 1 2 4 3 6 14 8 8 4 4 2 7 1 5 1 8 12 3 3 8 5 3 7 8 12 1 6 7 7 6 0 2 14 4 6 10 7 12 4 2 2 6 5 6 5 7 10 9 10 11 10 10
1 2 3 4 4 7 11 10 9 9 8 7 3 8 8 4 5 2 3 2 0 1 1 3 3 3 1 2 0 0 1 1 3 3 2 2 5 7 3 5 4 7 15 10 6 6 11 12 5 3 10 5 2 1 1 2 5 7 3 7 1 2 3 3 6 1 5 11 9 7 18 11 4 13 3 4 8 8 8 7 9 8 8 9 11 9 9 8
1 2 2 5 7 11 12 11 10 6 5 6 10 13 3 4 3 6 1 1 2 0 0 2 5 1 3 3 5 4 2 2 3 3 3 3 5 5 4 2 3 7 9 5 1 4 3 8 7 9 4 4 3 1 5 1 3 8 6 1 5 3 4 3 3 6 8 11 6 8 18 17 11 15 7 10 6 6 6 6 6 9 8 7 8 9 8 6
3 1 3 4 7 13 11 12 10 10 5 6 6 11 3 6 1 3 5 5 2 3 4 5 4 2 4 4 3 1 2 4 0 2 1 4 6 7 6 3 0 3 4 7 2 4 0 7 6 3 2 3 2 2 8 4 2 1 2 2 1 2 5 6 8 3 4 13 9 10 10 14 5 4 4 5 7 5 5 3 6 6 5 5 7 7 8 7
2 1 5 1 3 10 11 11 7 7 6 11 9 9 2 1 4 3 1 4 3 3 5 3 5 7 3 8 5 6 3 6 5 5 6 3 6 3 0 3 2 1 2 2 3 2 3 3 9 4 1 3 3 3 6 5 3 3 3 4 1 2 3 2 2 3 6 9 9 9 11 7 10 4 4 8 7 6 2 3 4 3 5 5 3 4 4 5
1 2 1 3 8 10 10 7 5 9 7 3 3 5 2 4 1 2 6 7 2 2 5 3 5 8 6 6 9 4 3 5 6 7 7 4 7 6 5 7 4 2 2 1 2 1 1 3 5 4 7 11 8 1 4 2 2 4 7 9 10 8 6 8 11 4 3 6 8 9 12 4 8 5 4 8 6 5 3 3 4 6 6 5 4 1 4 5
3 5 2 5 8 11 13 9 4 2 2 8 9 5 4 4 2 4 3 4 9 4 0 3 5 6 3 7 6 4 4 5 8 7 4 10 7 12 4 6 7 4 4 6 6 4 5 3 3 9 9 10 11 11 4 5 5 8 7 7 7 6 6 6 13 8 5 3 5 9 11 10 7 20 16 11 10 8 7 7 9 7 6 5 5 5 3 6
5 6 3 8 12 15 9 7 5 5 6 3 3 2 1 2 3 3 3 2 3 4 2 5 7 7 7 8 4 7 7 7 7 9 5 8 10 13 12 12 9 8 0 2 3 5 8 2 3 10 6 6 14 15 14 7 6 4 5 6 4 8 8 9 9 7 9 5 8 8 13 7 10 17 20 17 15 7 11 7 7 6 5 6 5 6 7 6
2 1 1 2 8 3 6 8 8 10 6 3 3 3 0 3 3 4 6 3 4 3 5 4 1 11 7 8 7 9 7 10 8 17 8 6 7 12 16 14 12 5 4 5 4 3 2 3 7 10 4 5 6 6 12 4 4 7 7 7 11 13 10 10 5 2 9 10 14 14 19 8 10 14 14 14 17 16 14 11 5 5 7 6 7 7 7 7
3 3 2 2 7 6 9 7 10 6 9 9 5 8 4 2 6 13 10 5 3 5 2 3 7 3 6 6 9 9 7 16 8 6 7 4 7 3 7 11 10 10 9 5 7 2 9 4 6 9 11 14 11 10 11 14 13 4 2 5 7 10 14 7 9 7 14 9 16 15 15 12 13 11 14 18 22 24 23 18 7 4 6 7 6 7 10 9
2 3 2 3 5 7 7 4 6 5 6 8 10 9 8 10 3 3 6 10 10 4 4 1 3 1 5 3 7 8 11 5 9 3 5 2 3 3 6 8 8 8 11 14 6 3 3 2 11 13 14 16 15 13 5 0 2 6 6 8 10 7 7 11 8 9 14 14 16 14 15 18 16 12 16 21 23 24 25 19 5 6 8 8 7 8 8 10
3 2 3 3 3 11 9 6 8 5 9 6 7 4 13 13 7 5 11 6 6 10 5 9 8 8 5 8 11 11 10 10 9 11 9 9 4 5 4 8 5 11 13 7 7 3 1 7 13 19 22 20 20 20 18 15 15 13 15 18 14 12 6 8 9 16 11 11 18 10 17 17 15 12 19 23 23 23 22 19 14 10 10 12 14 11 8 9
2 4 0 3 2 4 12 11 12 8 8 9 10 4 8 9 7 8 1 5 3 2 4 1 13 14 15 15 9 9 5 12 6 10 8 9 8 8 14 6 6 5 4 1 8 8 6 10 12 15 21 20 22 24 24 22 20 19 19 18 20 18 18 19 20 19 14 15 21 15 16 18 17 17 20 22 22 22 19 19 19 18 17 16 16 16 16 17
1 2 3 3 1 4 4 3 1 8 11 10 4 10 12 13 13 8 4 1 3 3 9 7 8 10 6 5 2 5 8 12 9 5 1 4 3 5 5 9 4 3 4 4 3 5 4 11 12 18 21 18 20 22 21 23 21 21 19 20 20 20 23 23 24 23 23 24 22 21 21 26 22 20 19 22 19 18 19 20 20 23 25 24 23 21 18 19
3 2 3 3 1 5 2 1 0 1 3 5 6 6 11 13 17 12 4 5 5 3 1 9 0 7 2 0 1 3 4 4 0 5 2 5 9 1 3 4 8 8 8 7 6 3 7 8 13 15 16 19 19 19 19 23 23 25 23 21 21 22 24 24 23 22 22 23 24 27 27 26 19 23 24 21 18 19 17 20 22 24 25 25 23 19 16 16
2 1 3 4 4 4 0 2 5 4 4 4 9 6 4 4 8 2 4 2 3 4 1 2 5 4 1 3 4 5 2 4 2 5 6 5 6 3 2 5 5 10 15 7 3 3 1 6 4 11 13 13 10 18 21 19 20 22 21 22 22 24 24 22 20 22 22 24 23 23 20 17 20 25 26 25 24 20 20 22 22 21 21 19 15 15 15 15
2 3 0 1 5 4 2 2 1 0 10 8 4 1 1 4 2 4 4 4 6 3 7 4 3 4 4 4 6 1 1 4 7 7 8 9 10 10 10 10 9 7 4 11 5 9 4 6 8 8 14 14 11 13 16 17 16 18 20 24 29 28 24 20 21 20 19 20 20 16 21 18 15 14 15 14 14 12 12 15 15 13 15 14 12 11 13 14
Wind_Direction
19 17 15 12 10 7 4 2 359 358 355 355 353 351 350 348 348 348 346 343 339 341 339 336 337 335 333 326 322 321 339 108 105 127 172 237 211 240 182 127 155 145 143 115 92 109 54 56 188 332 35 40 260 125 250 109 129 63 188 128 256 201 172 219 199 192 200 231 281 262 224 190 273 302 262 28 287 214 269 234 281 290 262 44 293 77 129 137
16 14 13 11 8 5 2 358 358 355 353 351 351 348 346 345 344 343 342 340 340 339 339 337 334 336 335 327 321 325 58 100 224 218 228 38 316 175 176 156 150 147 131 114 149 152 125 240 224 98 116 239 301 194 121 242 116 153 133 124 230 188 238 163 207 222 143 269 239 242 269 187 233 145 288 224 278 270 265 254 252 257 277 28 54 109 135 145
14 12 10 8 6 3 359 356 354 352 351 348 347 345 343 342 340 339 338 339 338 338 338 336 336 335 335 331 321 323 309 346 336 265 260 36 164 165 161 162 159 161 160 161 196 151 159 194 175 115 59 163 304 198 62 255 145 233 127 231 243 213 242 227 228 258 212 255 269 268 267 165 250 175 73 214 261 298 245 238 264 237 246 228 154 152 153 159
13 10 8 6 3 0 356 353 351 349 348 346 341 342 340 338 336 337 337 336 336 338 335 337 334 336 333 327 323 327 37 47 291 246 260 233 175 151 158 162 166 179 71 206 161 153 138 100 115 139 98 186 281 88 154 241 132 267 134 209 232 217 219 265 235 244 251 180 244 204 24 237 264 223 155 220 323 261 246 219 207 221 231 226 175 173 170 171
9 6 4 2 360 358 352 350 348 346 344 341 340 337 337 334 332 333 332 333 335 335 335 334 335 331 330 329 326 14 3 52 262 226 235 184 181 170 160 173 173 152 180 122 94 77 124 144 117 87 116 218 322 44 245 231 200 114 211 221 221 106 210 252 240 244 229 207 224 235 276 248 298 63 218 168 233 270 243 223 212 230 233 201 175 191 179 183
6 1 359 357 355 353 351 347 345 342 339 338 335 334 332 330 329 326 327 330 331 333 332 336 333 331 331 322 7 52 58 347 217 256 162 177 171 181 168 170 136 104 79 130 165 149 125 34 121 147 246 137 200 176 264 193 144 250 262 255 238 227 243 258 237 235 191 255 220 275 234 253 233 259 225 192 227 254 247 186 196 219 231 212 174 162 186 192
358 355 353 353 352 349 346 345 341 339 336 333 332 328 328 326 322 323 323 327 328 328 330 332 330 330 331 321 94 74 155 257 332 236 159 167 183 169 159 130 118 113 140 153 185 160 177 109 135 211 125 295 280 197 250 191 200 211 254 189 263 212 232 253 262 289 275 245 256 232 25 253 264 280 210 212 248 245 259 173 205 219 232 147 153 180 188 194
351 346 347 349 346 346 341 340 338 334 333 329 327 325 322 320 319 318 320 322 325 327 328 331 330 327 351 37 35 350 37 252 245 176 176 167 158 151 127 97 131 133 150 194 173 194 137 153 184 149 192 190 225 161 269 325 149 203 262 229 261 232 242 258 260 276 260 256 260 313 283 252 204 241 14 261 263 261 258 214 237 231 209 177 185 190 200 203
341 335 337 342 343 342 339 336 334 332 329 327 325 322 320 316 316 315 316 318 322 323 325 330 332 337 292 79 113 349 268 235 229 177 153 158 164 114 139 151 166 151 182 170 208 185 148 239 203 181 250 235 223 220 261 208 284 211 233 255 281 270 286 273 287 259 252 270 176 276 259 260 232 312 273 254 265 269 236 218 231 220 225 203 206 202 199 206
325 334 331 341 340 334 334 332 329 328 326 325 322 320 316 316 313 313 313 315 316 321 317 325 345 336 32 85 52 247 261 239 75 136 157 139 120 118 201 200 155 164 151 206 120 142 181 213 181 204 148 225 170 222 185 162 240 178 228 237 257 271 296 281 226 266 234 242 158 217 267 267 215 157 272 266 248 293 214 232 236 215 226 228 220 216 211 208
308 322 319 329 332 327 328 328 324 323 322 322 319 315 314 311 310 308 310 311 317 313 314 313 350 16 61 109 161 233 232 103 156 145 152 134 125 159 208 186 184 164 181 178 193 184 196 161 174 92 22 224 129 279 157 225 159 320 255 315 293 280 261 260 245 263 22 279 191 209 252 273 308 174 243 259 273 110 219 255 249 228 237 237 231 224 218 218
304 319 319 325 323 321 323 314 315 317 319 317 314 311 307 306 304 303 305 309 310 306 305 309 272 131 82 113 216 224 325 288 158 154 150 142 163 216 224 192 175 182 168 205 230 224 170 182 126 149 210 59 263 328 263 234 36 291 24 327 297 319 319 282 263 261 145 258 168 168 264 283 171 226 237 244 260 280 274 280 262 240 243 245 238 231 224 223
289 315 315 315 310 312 315 312 313 314 315 315 311 308 306 303 301 302 304 307 302 298 301 284 112 158 114 295 234 241 320 298 138 113 117 151 136 105 93 154 181 166 178 186 222 219 196 143 147 167 219 150 186 200 177 60 276 347 67 200 304 317 320 275 80 237 164 252 139 129 270 256 242 232 246 254 259 278 289 270 269 259 245 247 244 233 234 236
294 309 313 314 306 303 304 308 309 309 311 309 309 306 304 302 302 304 304 299 297 294 301 173 145 119 109 243 261 251 280 177 105 110 210 150 175 270 355 50 58 49 28 186 278 156 111 115 136 184 121 179 252 302 345 347 0 256 249 85 247 328 266 274 109 95 187 217 161 158 226 267 273 253 241 253 251 226 252 260 262 266 263 252 246 242 239 237
304 292 321 314 302 298 297 302 302 307 305 306 303 301 298 298 298 300 295 293 281 171 137 107 209 92 116 267 257 289 263 98 185 227 184 148 168 314 258 330 12 13 321 111 100 88 133 89 76 95 255 286 14 312 291 13 352 279 16 249 317 202 260 281 313 171 242 283 189 119 252 248 260 271 238 242 189 187 232 252 258 263 265 259 253 248 247 245
299 316 314 303 301 300 296 297 305 309 311 307 302 299 296 293 295 292 289 276 266 181 174 147 170 123 101 298 257 66 70 198 256 212 236 152 164 201 206 136 32 45 60 2 82 84 34 110 180 196 261 0 234 137 29 11 312 328 204 255 255 166 256 346 292 212 216 153 267 177 231 262 283 264 265 238 207 195 221 251 259 260 263 264 257 253 250 257
297 300 297 295 303 306 303 307 312 312 310 308 306 301 294 290 292 292 304 86 94 124 160 161 117 188 198 244 128 257 232 233 233 43 139 169 157 157 112 79 154 91 43 49 33 79 347 133 313 11 27 217 159 98 9 291 272 264 171 223 222 237 238 241 298 283 200 167 215 236 244 237 249 269 263 249 185 183 220 244 255 258 259 261 267 261 255 252
292 294 300 300 307 315 318 318 318 316 311 310 307 303 299 299 296 100 58 55 90 142 202 213 126 84 281 352 262 236 138 237 126 216 93 311 131 129 112 128 59 92 82 33 354 136 297 178 62 202 345 251 130 143 170 234 219 243 175 233 275 256 219 249 287 271 81 250 229 229 236 245 251 262 274 263 209 212 236 243 249 258 264 266 259 262 257 252
278 283 296 303 308 314 318 318 318 316 313 316 308 305 308 80 64 105 91 234 105 45 32 234 133 162 216 228 262 329 183 215 135 128 206 124 52 117 74 83 112 125 155 114 277 131 344 58 32 96 231 232 226 192 203 232 238 246 224 236 185 236 237 215 238 259 244 259 238 230 240 244 247 259 264 269 261 246 254 256 264 261 260 259 259 263 265 258
274 277 295 302 305 311 316 318 318 317 320 325 337 8 3 15 7 342 346 15 230 190 194 207 207 256 329 306 215 237 17 67 130 243 103 271 116 125 37 93 37 59 119 190 189 208 144 167 167 199 222 224 233 195 223 236 249 289 277 233 248 250 268 261 265 265 202 290 242 241 244 253 247 242 250 257 269 268 264 258 254 252 254 256 257 254 255 259
273 281 295 302 306 312 316 318 318 316 322 325 319 52 87 180 283 293 317 260 251 273 259 243 205 209 228 195 193 132 173 260 166 208 193 131 112 122 225 113 118 198 220 166 156 264 111 196 211 214 220 222 227 220 233 257 260 247 259 267 267 251 270 253 265 267 240 201 263 228 254 254 253 248 251 258 267 266 263 263 255 251 247 249 253 258 256 254
259 271 291 302 307 311 315 317 317 320 322 12 32 74 120 232 145 244 95 309 315 252 240 247 262 285 273 239 207 174 86 288 240 234 274 150 181 163 252 162 155 215 118 135 333 198 201 211 219 225 228 240 309 204 220 222 237 242 237 252 277 262 262 276 262 261 257 173 270 263 265 262 255 249 246 246 252 256 254 249 255 252 249 249 248 252 258 262
253 263 288 298 302 308 313 315 316 324 353 26 41 56 128 234 112 302 86 193 268 264 242 249 229 231 254 257 243 107 234 221 243 147 186 158 111 222 130 157 203 113 149 169 209 214 258 239 237 236 232 256 274 225 224 276 261 227 242 253 243 256 274 283 202 255 246 192 278 252 274 272 265 260 249 242 246 252 250 252 257 252 248 245 245 245 255 261
245 258 278 291 299 303 308 315 317 4 9 116 101 139 226 137 132 133 76 235 277 305 229 229 209 218 230 221 215 178 209 273 232 253 220 150 157 185 144 179 181 136 203 200 216 229 235 204 217 223 195 206 235 236 221 254 267 211 219 226 257 249 238 234 270 330 293 269 249 292 278 274 257 260 252 241 238 252 258 263 263 261 244 247 254 264 256 256
236 239 263 283 289 296 304 318 9 309 160 43 86 240 186 172 141 184 38 309 325 273 295 304 168 240 232 40 84 144 228 256 215 44 167 155 154 88 228 171 136 227 200 214 243 255 260 241 126 171 201 213 223 242 211 210 262 255 190 206 236 243 262 260 278 314 307 294 229 270 309 279 202 219 236 232 243 250 250 250 257 258 254 252 254 250 253 254
225 221 230 248 278 298 307 319 279 241 58 204 208 206 193 144 150 93 89 33 287 264 359 232 119 267 74 191 20 171 93 243 22 218 152 222 12 165 85 223 158 251 174 197 228 235 241 201 200 202 194 209 208 217 213 178 242 268 245 207 235 248 244 259 273 336 278 258 312 111 213 291 130 245 229 237 233 243 258 250 251 255 254 252 252 253 252 250
219 215 215 230 270 300 9 254 276 349 20 320 222 182 173 127 155 155 5 308 314 199 171 267 64 271 75 322 148 126 127 266 300 35 42 350 183 297 202 222 309 225 162 167 358 268 177 218 199 213 202 198 191 230 230 187 230 262 207 183 220 241 243 239 222 198 259 300 256 142 152 263 293 256 204 217 222 227 245 249 248 246 250 246 248 252 254 252
209 207 205 217 241 230 193 254 9 18 225 212 157 149 137 129 120 273 86 314 285 92 97 271 239 329 73 300 41 165 207 298 51 291 34 291 82 341 189 199 200 181 188 106 242 233 160 204 206 216 204 177 209 215 206 166 186 227 194 140 182 203 227 164 169 205 229 8 297 168 116 281 263 269 180 187 227 228 232 238 243 247 246 243 247 251 257 261
204 197 194 193 211 220 132 168 144 243 232 157 124 105 85 113 158 88 121 251 240 80 285 65 293 16 353 333 26 39 345 11 59 300 313 41 20 132 227 244 172 275 291 179 247 266 317 132 224 186 156 223 228 228 172 175 204 270 120 85 79 80 76 113 115 44 325 18 276 168 150 223 281 300 127 357 207 216 224 229 239 241 240 243 250 257 257 260
205 193 186 181 182 147 317 60 220 231 112 92 85 90 92 213 26 47 302 241 34 294 66 252 58 284 47 74 312 348 331 330 127 331 26 137 327 23 297 174 168 256 273 324 260 246 238 355 150 123 214 228 186 235 177 196 202 87 88 79 355 30 15 28 70 100 30 269 261 158 182 166 278 289 168 140 198 219 217 237 260 261 261 263 259 256 260 263
208 196 183 168 176 193 125 209 243 165 110 92 106 103 139 45 119 119 237 222 18 225 21 23 126 28 81 125 263 304 193 314 335 97 74 339 352 41 352 287 33 39 3 296 275 270 254 150 205 245 96 83 108 150 37 29 255 174 247 169 19 315 13 31 341 42 203 267 210 180 175 170 232 301 318 229 243 310 214 221 230 239 249 253 255 253 254 255
212 198 182 178 189 147 174 221 177 120 109 88 59 44 39 289 27 214 226 349 321 251 94 277 46 107 93 353 139 262 186 331 230 153 177 179 155 157 205 189 165 142 317 234 267 18 277 230 221 145 208 169 172 208 289 15 51 128 107 75 244 270 25 317 28 291 200 236 233 199 170 346 239 248 274 285 287 269 206 212 227 234 250 256 257 255 254 264
211 200 188 191 179 201 214 114 118 111 93 91 65 72 98 142 242 221 256 24 266 163 230 113 161 151 171 102 264 245 122 225 203 214 104 339 143 265 265 206 187 156 248 267 271 335 271 257 147 221 44 220 142 197 248 326 221 133 169 166 125 248 249 252 271 258 292 284 243 180 176 236 275 310 209 243 252 260 263 227 233 237 240 255 263 277 283 273
218 200 188 198 197 199 138 141 139 129 117 74 93 55 68 173 236 46 179 199 229 56 97 95 11 106 133 181 238 149 270 237 141 242 161 183 134 246 276 246 176 269 183 280 280 208 307 300 227 128 234 180 183 206 204 208 172 204 112 157 186 180 159 202 206 242 233 245 316 286 125 233 76 238 238 228 265 283 258 277 276 275 268 264 269 274 274 283
239 205 193 187 208 183 143 153 141 137 105 96 68 119 171 231 353 170 262 285 291 350 332 293 75 124 292 232 266 212 198 318 114 98 194 131 239 200 207 217 220 184 125 213 233 82 228 246 285 188 192 156 182 219 219 153 28 209 165 79 19 231 145 223 221 243 269 324 334 216 218 210 242 235 278 255 295 276 263 261 241 246 241 240 246 251 257 280
248 214 182 184 181 180 145 144 146 126 117 125 107 151 223 206 224 165 229 168 328 71 318 339 65 314 244 296 298 75 8 174 273 121 278 187 227 248 216 214 186 188 165 198 178 249 217 260 271 256 93 179 202 149 210 140 215 247 116 188 216 138 147 248 276 266 253 334 255 226 289 275 306 283 254 284 4 287 293 279 278 274 279 290 282 278 275 260
124 128 182 185 194 162 157 153 152 135 143 148 147 222 218 274 195 157 259 125 202 26 40 354 272 149 311 308 289 69 257 36 238 142 260 182 302 212 223 255 179 189 207 193 270 207 252 268 273 189 254 273 359 142 167 224 138 106 195 234 59 121 116 176 225 339 252 242 263 282 267 273 10 285 318 352 334 315 327 313 313 299 292 284 274 268 269 272
213 214 237 201 193 162 156 158 136 131 140 175 205 225 136 214 244 183 172 154 223 136 136 160 271 100 260 224 265 246 298 164 228 101 219 162 244 157 150 244 222 195 227 280 347 292 42 278 256 276 311 294 341 119 321 286 181 169 189 239 141 251 253 242 98 232 236 245 262 220 270 276 250 263 291 296 277 273 302 322 335 338 348 313 293 289 285 275
232 229 261 219 161 155 157 154 148 142 142 197 217 240 201 223 159 184 207 145 156 126 217 219 209 250 186 223 242 47 183 248 92 248 280 234 219 224 215 166 48 181 146 143 199 262 155 267 270 289 8 332 9 106 235 215 333 28 15 289 268 106 196 168 193 179 191 250 247 247 236 265 251 206 226 243 235 235 256 351 359 318 317 334 321 315 303 283
280 248 244 359 131 144 148 143 142 157 169 210 206 228 147 219 253 247 245 154 232 156 236 214 212 255 217 228 178 227 252 206 220 236 216 281 255 297 66 233 180 228 149 45 238 194 273 232 269 245 350 8 276 195 228 159 200 261 251 266 274 238 235 112 303 158 205 248 234 265 252 257 275 199 229 243 217 224 215 2 287 304 315 332 311 270 266 264
230 243 254 119 143 137 128 126 152 191 214 299 248 231 209 242 207 265 212 202 226 273 201 194 174 221 211 251 256 200 235 205 191 201 198 252 203 277 251 231 150 252 158 103 149 252 330 352 269 354 299 254 263 219 180 211 219 212 201 226 220 227 254 255 255 185 200 227 249 253 255 239 278 263 201 255 222 229 238 228 264 269 267 275 322 269 257 263
193 234 237 137 143 148 139 171 216 192 214 203 220 186 236 177 268 228 218 213 204 220 21 209 234 233 215 236 230 204 187 209 205 218 207 224 207 211 268 200 190 171 212 234 209 188 144 196 200 253 245 264 281 278 222 237 236 234 207 248 226 226 231 231 251 230 256 229 266 252 274 232 237 271 251 235 225 238 257 232 245 251 263 280 288 279 242 231
206 226 5 162 174 160 158 203 200 202 213 254 17 315 83 317 211 229 216 195 206 192 225 223 204 223 227 235 222 241 194 246 179 220 197 227 226 213 219 232 244 260 15 320 293 237 117 185 170 246 248 259 274 277 283 220 218 291 268 235 219 236 211 231 240 240 251 245 244 246 241 234 212 247 264 272 281 274 263 232 235 263 274 279 275 269 274 267
298 264 81 184 196 221 167 206 215 217 224 254 224 250 253 199 226 253 233 198 174 209 203 204 273 217 243 209 216 233 170 269 191 232 249 193 253 211 232 239 246 250 205 224 210 228 227 224 199 264 248 265 249 277 265 263 149 217 211 211 219 235 240 238 255 71 255 224 242 248 255 238 232 249 270 291 281 270 252 258 209 246 277 276 282 278 272 270
333 304 239 184 206 191 214 200 225 206 217 233 212 234 234 241 219 231 243 235 195 207 189 244 217 180 230 201 229 230 200 220 265 241 240 203 244 251 256 231 223 243 222 216 218 171 238 202 163 234 244 254 251 233 239 246 226 201 222 225 231 215 233 257 256 227 247 232 234 242 258 249 256 263 276 274 275 275 271 261 257 220 240 272 284 297 296 282
185 248 253 185 199 227 250 272 261 196 221 217 235 227 224 242 245 242 180 251 229 235 227 268 319 274 236 226 240 227 241 251 235 248 210 266 274 290 217 222 211 230 228 226 213 114 256 215 212 229 234 244 243 251 249 88 58 235 226 216 246 225 221 229 257 251 244 250 242 244 256 266 258 266 266 266 267 270 274 279 272 292 283 268 267 259 252 264
297 226 214 235 186 227 241 207 232 184 233 156 245 152 229 231 238 273 174 263 205 222 226 224 236 234 230 217 240 251 243 258 237 254 247 253 247 261 246 208 246 238 242 247 197 195 297 226 227 236 238 241 248 253 253 251 254 257 267 266 253 238 214 214 204 240 238 268 260 242 257 263 266 266 262 265 268 273 275 282 287 272 268 272 269 271 273 264
181 252 303 223 241 211 216 231 229 225 237 206 225 197 242 240 214 231 235 227 203 182 188 325 235 228 240 231 238 245 219 243 236 247 246 251 266 290 295 275 256 256 251 239 185 196 196 240 239 242 247 243 244 249 251 253 250 252 250 253 256 251 245 244 246 247 245 241 256 251 254 259 254 246 253 259 265 268 279 287 286 284 281 276 274 275 274 276
198 318 291 313 143 252 250 14 342 241 244 230 248 217 239 241 244 223 189 288 209 230 204 247 218 243 265 331 317 270 252 253 250 259 50 10 352 331 310 328 318 1 318 282 240 207 200 236 243 238 252 244 242 242 245 248 252 252 250 250 250 251 254 250 251 251 247 250 251 257 253 254 256 257 253 258 263 272 276 279 283 284 283 284 284 283 285 285
290 231 289 12 257 280 303 0 88 283 262 240 252 209 234 236 251 248 247 211 242 266 182 242 30 37 289 214 216 248 254 293 115 265 306 27 325 198 313 245 305 322 344 322 307 305 230 249 234 250 248 245 244 244 238 237 241 245 246 249 248 251 252 250 254 256 262 263 260 256 257 260 258 257 258 259 261 262 270 276 276 275 280 282 288 300 306 307
253 39 289 315 292 254 248 224 247 249 251 211 235 223 234 197 238 185 236 220 173 222 78 79 5 336 177 227 233 251 187 143 175 223 251 261 270 302 323 284 325 300 307 302 257 331 314 308 307 281 279 267 237 247 246 245 240 243 245 246 248 247 248 244 246 239 239 250 255 260 262 262 256 254 255 257 264 272 275 276 279 282 290 312 345 6 9 2
37 297 26 291 256 269 267 286 37 88 244 241 253 297 252 276 60 7 342 247 204 104 91 42 353 328 301 314 284 268 65 273 241 235 226 225 228 247 235 239 248 243 274 278 269 270 232 273 273 285 264 262 258 255 264 262 255 243 233 236 238 240 242 247 248 253 245 247 255 257 254 263 300 335 339 336 329 305 292 289 299 346 15 26 17 8 6 359